Weather in Lopatki

Russia / Kurgan Oblast     54°59′11″N   66°37′12″E
В апреле 2022 года жителям России запретили посещать сайт meteo.paraplan.net по решению Генеральной прокуратуры. Аудитория сайта уменьшилась в 10 раз. Владельцы сайта не видят смысла в поддержке погодного сервера в таких условиях. Сайт будет закрыт в октябре.
temp.,
°C
wind,
m/s
gust,
m/s
humid.,
%
clouds,
%
prec.,
mm/h
press.,
hPa
HPBL,
m
3 october, mon
mon323:00+2s475064 0.0 1033152
02:00+2s375193 0.0 1033162
05:00+2s375079 0.0 1033160
08:00+2s375191 0.0 1033207
11:00+7s463983 0.0 1033489
14:00+10s55325 0.0 1032801
17:00+9s353920 0.0 1031146
20:00+6s3545100 0.0 103271
4 october, tue
tue423:00+4ssw474739 0.0 1033111
02:00+4ssw474879 0.0 1033113
05:00+3sw4849100 0.0 1033117
08:00+4sw4948100 0.0 1034176
11:00+8sw583999 0.0 1034297
14:00+8sw484242 0.0 1034279
17:00+11sw48425 0.0 1034191
20:00+8wsw46495 0.0 103589
5 october, wed
wed523:00+7wsw46505 0.0 103576
02:00+6wsw46495 0.0 103574
05:00+6wsw47475 0.0 1036106
08:00+6sw374585 0.0 1036127
11:00+12wsw5831100 0.0 1035455
14:00+14sw5826100 0.0 1034681
17:00+12sw3735100 0.0 1033143
20:00+9sw4739100 0.0 103295
6 october, thu
thu623:00+8sw364199 0.0 103290
02:00+6sw4743100 0.0 1031108
05:00+6sw3743100 0.0 1031139
08:00+7sw3742100 0.0 1030141
11:00+11sw4631100 0.0 1029349
14:00+14ssw4524100 0.0 1027639
17:00+13s3632100 0.0 102599
20:00+10s4835100 0.0 1025134
7 october, fri
fri723:00+9s4935100 0.0 1023148
02:00+9s41034100 0.0 1021176
05:00+9s41133100 0.0 1019190
08:00+9s51132100 0.0 1018209
11:00+13ssw51126100 0.0 1016454
14:00+15sw61121100 0.0 10141164
17:00+13ssw61138100 0.0 1012585
20:00+11ssw5115690 0.0 1011335